Terminal Aerodrome Forecast
Issued by NWS Wilmington, OH

Current Version | Previous Version | Graphics & Text | Print | Product List | Glossary On
Versions: 1 2 3 4 5 6 7 8 9 10 11 12 13 14 15 16 17 18 19 20 21 22 23 24 25 26 27 28
000
FTUS41 KILN 151400 AAB
TAFCVG
TAF AMD
KCVG 151457Z 1515/1618 33014G20KT P6SM BKN025
     FM151800 32012G20KT P6SM BKN040
     FM160000 VRB03KT P6SM SKC
     FM161400 13008KT P6SM SKC=

USA.gov is the U.S. government's official web portal to all federal, state and local government web resources and services.